Voltar ao catálogo

CZ-6A DEB

AtivoSSO
NORAD 56655·DEBRIS·🇨🇳 China

Lançado Nov 11, 2022 de Taiyuan Satellite Launch Center

Loading…

Próximas Passagens (próximas 24 horas)

TLE

EnvelhecendoSource: Space-Track

Época: Sep 9, 2026, 08:44 UTC

1 56655U 22151AGF 26252.36394870  .00001092  00000-0  34453-3 0  9999
2 56655  98.6183 289.7345 0085751 107.2350 253.8245 14.40205104177179

Acompanhe CZ-6A DEB em tempo real com AllMySat

Download on the App Store